Change the Weather History Date:

Sunday, October 28, 2012

  Actual Average Record
Temperature  
Mean Temperature 52 °F -  
Max Temperature 55 °F 48 °F 60 °F (2010)
Min Temperature 48 °F 34 °F 26 °F (2001)
Degree Days  
Heating Degree Days 14    
Growing Degree Days 2 (Base 50)    
Moisture  
Dew Point 45 °F    
Average Humidity 75    
Maximum Humidity 82    
Minimum Humidity 61    
Precipitation  
Precipitation 0.00 in - - ()
Sea Level Pressure  
Sea Level Pressure 30.01 in    
Wind  
Wind Speed 8 mph ()    
Max Wind Speed 20 mph    
Max Gust Speed 22 mph    
Visibility 15.0 miles    
Events      
Averages and records for this station are not official NWS values.
T = Trace of Precipitation, MM = Missing Value Source: Averaged Metar Reports

Daily Weather History Graph

Daily Weather History Graph

Search for Another Location

Airport or City:

Trip Planner

Search our weather history database for the weather conditions in past years. The results will help you decide how hot, cold, wet, or windy it might be!

Date:

Astronomy

Oct. 28, 2012 Rise Set
Actual Time 7:29 AM EDT 5:47 PM EDT
Civil Twilight 6:58 AM EDT 6:17 PM EDT
Nautical Twilight 6:24 AM EDT 6:52 PM EDT
Astronomical Twilight 5:49 AM EDT 7:26 PM EDT
Moon 5:03 PM EDT (10/28) 6:18 AM EDT (10/28)
Length of Visible Light 11h 19m
Length of Day
10h 17m
Waxing Gibbous, 99% of the Moon is Illuminated
Oct 28
Waxing Gibbous
Oct 29
Full
Nov 6
Last Quarter
Nov 13
New
Nov 20
First Quarter

Hourly Weather History & Observations

Time (EDT) Temp. Dew Point Humidity Pressure Visibility Wind Dir Wind Speed Gust Speed Precip Events Conditions
12:00 AM 53.6 °F 46.4 °F 77% 30.00 in 15.0 mi NNE 6.9 mph - N/A   Mostly Cloudy
1:00 AM 51.8 °F 46.4 °F 82% 30.01 in 15.0 mi North 9.2 mph - N/A   Mostly Cloudy
2:00 AM 51 °F 45 °F 74% 30.01 in 15 mi North 8.1 mph - -   Mostly Cloudy
2:00 AM 50.0 °F 44.6 °F 82% 30.01 in 15.0 mi North 9.2 mph - N/A   Mostly Cloudy
3:00 AM 50.0 °F 44.6 °F 82% 30.02 in 15.0 mi NNE 6.9 mph - N/A   Overcast
3:52 AM 50.0 °F - N/A% - 15.0 mi NNW 4.6 mph - N/A   Overcast
4:00 AM 50.0 °F 44.6 °F 82% 30.03 in 15.0 mi North 5.8 mph - N/A   Overcast
5:00 AM 50.0 °F 44.6 °F 82% 30.03 in 15.0 mi NNE 8.1 mph - N/A   Mostly Cloudy
6:00 AM 50.0 °F 44.6 °F 82% 30.04 in 15.0 mi NNE 4.6 mph - N/A   Overcast
7:00 AM 50.0 °F 44.6 °F 82% 30.04 in 15.0 mi North 4.6 mph - N/A   Overcast
7:23 AM 50.0 °F - N/A% - 15.0 mi NNE 5.8 mph - N/A   Overcast
7:41 AM 48.2 °F - N/A% - 15.0 mi North 6.9 mph - N/A   Overcast
8:00 AM 49 °F 44 °F 79% 30.06 in 15 mi North 4.6 mph - -   Overcast
8:00 AM 50.0 °F 44.6 °F 82% 30.06 in 15.0 mi North 4.6 mph - N/A   Overcast
8:19 AM 50.0 °F - N/A% - 15.0 mi North 3.5 mph - N/A   Overcast
9:00 AM 50.0 °F 44.6 °F 82% 30.07 in 15.0 mi North 4.6 mph - N/A   Overcast
10:00 AM 51.8 °F 46.4 °F 82% 30.06 in 15.0 mi NNE 6.9 mph - N/A   Overcast
11:00 AM 51.8 °F 46.4 °F 82% 30.05 in 15.0 mi NNE 5.8 mph - N/A   Overcast
12:00 PM 53.6 °F 46.4 °F 77% 30.05 in 15.0 mi NE 6.9 mph - N/A   Overcast
1:00 PM 55.4 °F 46.4 °F 72% 30.02 in 15.0 mi NE 12.7 mph - N/A   Overcast
2:00 PM 55 °F 46 °F 63% 30.01 in 15 mi NE 10.4 mph - -   Overcast
2:00 PM 55.4 °F 46.4 °F 72% 30.01 in 15.0 mi NE 9.2 mph - N/A   Overcast
3:00 PM 55.4 °F 44.6 °F 67% 30.00 in 15.0 mi NE 12.7 mph - N/A   Overcast
4:00 PM 55.4 °F 42.8 °F 63% 29.98 in 15.0 mi NNE 12.7 mph - N/A   Overcast
5:00 PM 55.4 °F 42.8 °F 63% 29.98 in 15.0 mi NE 13.8 mph 19.6 mph N/A   Overcast
6:00 PM 55.4 °F 42.8 °F 63% 29.96 in 15.0 mi NNE 16.1 mph - N/A   Overcast
7:00 PM 55.4 °F 44.6 °F 67% 29.96 in 15.0 mi NNE 15.0 mph 20.7 mph N/A   Overcast
8:00 PM 55 °F 45 °F 61% 29.96 in 15 mi NE 16.1 mph - -   Overcast
8:00 PM 55.4 °F 44.6 °F 67% 29.96 in 15.0 mi NE 17.3 mph - N/A   Overcast
9:00 PM 53.6 °F 44.6 °F 72% 29.96 in 15.0 mi NE 15.0 mph 21.9 mph N/A   Overcast
10:00 PM 53.6 °F 44.6 °F 72% 29.97 in 15.0 mi NE 15.0 mph - N/A   Overcast
11:00 PM 51.8 °F 44.6 °F 76% 29.96 in 15.0 mi NE 19.6 mph - N/A   Mostly Cloudy